Location: Krakow
(50.0212°N, 19.9423°E)
Time: 06:29:15
(UTC+02:00)

CUTE 1.7 + AOD 2 - Visible Passes

Search period start: 16 April 2024 00:00
Search period end: 26 April 2024 00:00
Orbit: 572 x 588 km, 97.7° (Epoch: 15 April)

Date Brightness Start Highest point End Pass type
(mag) Time Alt. Az. Time Alt. Az. Time Alt. Az.
16 Apr ? 03:10:09 10° NE 03:12:39 16° E 03:15:07 10° SE visible
16 Apr ? 04:44:19 10° N 04:48:22 59° WNW 04:52:22 10° SSW visible
17 Apr ? 03:14:52 10° NE 03:17:38 17° E 03:20:22 10° SE visible
17 Apr ? 04:49:17 10° N 04:53:17 53° WNW 04:57:14 10° SSW visible
18 Apr ? 03:19:38 10° NE 03:22:36 19° E 03:25:34 10° SE visible
18 Apr ? 04:54:14 10° N 04:58:11 47° WNW 05:02:06 10° SW visible
19 Apr ? 03:24:23 10° NE 03:27:34 21° E 03:30:42 10° SE visible
19 Apr ? 04:59:12 10° N 05:03:04 42° WNW 05:06:56 10° SW visible
20 Apr ? 03:29:09 10° NE 03:32:30 24° E 03:35:48 10° SSE visible
21 Apr ? 03:33:57 10° NE 03:37:25 26° E 03:40:51 10° SSE visible
22 Apr ? 03:38:43 10° NNE 03:42:19 29° E 03:45:54 10° SSE visible
23 Apr ? 03:43:29 10° NNE 03:47:12 32° E 03:50:53 10° SSE visible
24 Apr ? 03:48:16 10° NNE 03:52:04 36° E 03:55:50 10° SSE visible
25 Apr ? 03:53:02 10° NNE 03:56:55 40° E 04:00:46 10° S visible
